Погода в Десне

Чехия     50°45′51″N   15°17′58″E
темп.,
°C
ветер,
м/с
пор.,
м/с
влажн.,
%
обл.,
%
осадки,
мм/ч
давл.,
гПа
погр.,
м
10 мая, пн
пн1023:00+11юв5138489 0.0 1013470
02:00+9юв5149168 0.0 1012502
05:00+8юв5148559 0.0 1011510
08:00+11юв5107263 0.0 1011424
11:00+16ююв586394 0.0 1011568
14:00+20ююв57595 0.0 1010747
17:00+21ююв56628 0.0 1011911
20:00+17юв498595 0.0 1011476
11 мая, вт
вт1123:00+14юв3109098 0.0 1011374
02:00+12вюв379438 0.0 1010198
05:00+12юв41385100 0.0 1008482
08:00+14юв511735 0.0 1007590
11:00+18ююв58594 0.0 1007802
14:00+20ююв69535 0.0 10061120
17:00+20ююв610584 0.0 10051253
20:00+17юв310755 0.0 1005532
12 мая, ср
ср1223:00+15юв311818 0.0 1006539
02:00+12вюв239434 0.0 100580
05:00+12с019498 0.1 100685
08:00+12ссз1195100 0.1 1007243
11:00+14ссз118699 0.1 1007439
14:00+14ссз2281100 0.1 1007520
17:00+13с3585100 0.1 1006454
20:00+11с3697100 0.7 1006442
13 мая, чт
чт1323:00+10с3799100 4.2 1005372
02:00+10с3898100 4.9 1003375
05:00+10ссв2799100 0.4 1001443
08:00+11св1199100 0.6 1001136
11:00+13ссз118698 0.1 1000559
14:00+13ююз1188100 1.3 1000357
17:00+10ю2499100 1.9 1001295
20:00+9ю1299100 2.8 1002167
14 мая, пт
пт1423:00+9ююз22100100 0.1 1002237
02:00+8зюз22100100 1.1 1003223
05:00+6зюз2399100 1.7 1004322
08:00+6юз2399100 5.6 1005242
11:00+6юз2398100 1.8 1007328
14:00+6юз2397100 1.9 1009372
17:00+7юз2395100 0.1 1009446
20:00+6зюз159559 0.3 1010430